Lapse_Rate
6.0 6.0 6.0 5.7 5.8 5.8 5.3 5.3 5.2 5.5 5.4 5.9 6.1 6.0 6.2 6.2 6.2 6.2 6.4 6.4 6.3 6.3 6.3 6.7 6.7 6.8 6.6 6.9 7.3 7.6 7.4 7.5 7.6 7.6 7.8 8.4 8.5 8.3 8.2 8.3 8.3 8.1 8.4 8.2 8.3 8.2 8.1 8.1 8.2 8.5 8.3 8.0 8.2 8.4
6.2 6.1 6.0 6.1 5.9 5.9 5.6 5.2 5.7 5.8 5.4 5.4 5.6 5.7 6.0 6.0 6.1 6.1 6.4 6.4 6.3 6.4 6.7 6.6 6.9 7.1 7.0 6.6 7.0 7.0 7.1 7.0 7.2 7.6 7.9 8.2 7.9 8.3 8.2 8.4 8.3 8.0 7.8 8.0 7.9 7.9 8.2 8.4 8.3 8.4 8.6 8.4 8.1 8.1
6.3 6.2 6.0 5.9 6.1 5.8 5.7 5.7 5.5 5.7 5.5 5.3 5.2 5.6 5.8 6.0 6.0 6.0 6.1 6.3 6.4 6.7 7.0 6.9 7.1 7.2 7.3 7.0 6.6 7.0 7.1 6.7 6.9 7.3 7.3 7.5 7.9 7.8 7.7 7.7 7.6 7.4 7.3 7.7 7.6 7.5 7.8 8.3 8.3 8.3 8.2 8.2 7.9 8.2
6.4 6.3 6.1 6.0 5.9 5.8 5.7 5.6 5.7 5.5 5.6 5.2 5.4 5.5 5.6 5.8 5.9 6.0 6.1 6.3 6.3 6.7 6.9 7.0 7.1 7.0 7.1 7.1 6.9 7.2 6.7 6.9 6.9 6.9 7.3 7.5 7.8 7.8 7.9 7.9 7.6 7.3 7.3 7.4 7.4 7.5 7.3 7.9 7.7 8.0 8.1 8.0 8.1 8.2
6.5 6.3 6.2 6.2 6.1 6.1 5.9 5.7 5.7 5.6 5.5 5.6 5.4 5.5 5.7 5.8 6.1 6.1 6.2 6.2 6.3 6.6 6.8 6.9 6.9 7.0 7.0 7.1 7.0 7.0 6.8 6.9 6.8 6.7 7.1 7.5 7.6 7.5 7.9 8.0 8.0 8.0 7.9 7.6 7.6 7.1 7.4 7.7 7.9 7.9 7.9 7.7 7.8 7.3
6.6 6.4 6.2 6.2 6.2 6.1 5.9 5.8 5.7 5.8 5.5 5.6 5.5 5.2 5.5 5.7 6.0 6.1 6.1 6.2 6.3 6.6 6.9 7.0 7.1 7.2 7.2 7.0 7.0 6.9 6.9 6.8 6.7 6.6 6.9 7.1 7.3 7.5 8.0 8.3 8.7 8.1 7.9 7.7 7.3 7.8 7.5 7.8 8.2 8.0 7.5 7.4 6.8 6.7
6.5 6.5 6.2 6.1 6.0 6.0 5.8 5.8 5.9 5.8 5.8 5.7 5.5 5.4 5.5 5.7 5.8 5.9 6.1 6.4 6.5 6.6 6.7 7.1 7.3 7.1 7.2 7.2 7.1 7.0 6.9 6.9 6.9 6.8 7.0 7.2 7.9 7.5 7.9 8.0 8.1 8.1 8.0 7.6 7.4 7.6 7.4 7.2 7.4 7.6 7.2 6.7 6.8 7.0
6.2 6.2 6.1 6.1 6.0 6.0 6.0 5.8 5.8 5.9 5.9 5.7 5.7 5.7 5.8 5.8 5.9 5.8 6.0 6.2 6.4 6.5 6.6 7.0 7.2 7.4 7.4 7.3 7.1 7.0 6.9 6.8 7.1 7.2 7.3 7.7 7.7 7.8 7.5 7.9 8.3 8.3 7.9 7.6 7.4 7.2 7.5 7.5 7.7 7.4 7.4 7.2 7.0 7.1
6.0 6.0 6.0 6.0 6.0 6.0 6.1 5.9 5.8 5.8 5.8 5.8 5.8 5.8 5.9 5.9 5.9 5.8 6.0 6.1 6.1 6.1 6.4 7.0 7.3 7.4 7.3 7.1 7.0 7.0 7.0 7.2 7.3 7.4 7.6 7.6 7.7 7.3 7.7 8.1 8.1 7.9 7.8 7.9 7.6 7.5 7.5 7.6 7.7 7.6 7.5 7.4 7.3 7.3
5.8 5.9 6.0 6.0 6.1 6.0 6.1 6.0 5.8 5.7 5.7 5.8 5.7 5.6 5.7 5.7 5.9 5.8 5.8 5.9 5.8 6.0 6.3 7.1 7.2 7.4 7.3 7.4 7.3 7.3 7.3 7.4 7.6 7.5 7.6 7.6 7.4 7.5 7.6 7.6 8.0 8.1 8.1 7.8 7.6 7.6 7.4 7.5 7.5 7.4 7.3 7.2 7.1 7.0
5.6 5.8 5.9 6.1 6.2 6.1 6.0 6.1 6.0 5.8 5.7 5.8 5.5 5.4 5.7 5.6 5.5 5.5 5.8 5.9 5.9 6.3 6.6 6.9 7.3 7.3 7.3 7.3 7.3 7.4 7.4 7.5 7.5 7.5 7.4 7.4 7.4 7.4 7.4 7.3 7.4 7.4 7.6 7.5 7.3 7.3 7.2 6.9 6.8 7.0 7.0 6.9 6.9 7.0
5.8 5.8 6.0 6.1 6.2 6.1 6.1 6.3 6.0 6.0 5.8 5.5 5.5 5.3 5.1 5.3 5.5 5.7 5.9 6.0 6.2 6.5 6.6 7.0 7.4 7.2 7.2 7.3 7.3 7.4 7.4 7.6 7.6 7.4 7.5 7.5 7.6 7.6 7.4 7.2 6.9 6.9 6.9 7.2 7.3 7.0 6.8 6.8 6.9 6.7 6.6 6.6 6.6 6.6
5.8 5.7 5.8 6.0 6.1 6.0 6.0 6.1 5.8 5.8 5.6 5.3 5.4 5.7 5.5 5.3 5.3 5.5 5.9 6.0 6.1 6.1 6.3 6.5 7.0 7.0 7.0 7.2 7.4 7.4 7.5 7.3 7.4 7.5 7.5 7.6 7.5 7.4 7.4 7.2 7.0 6.7 6.7 6.4 6.6 6.9 6.7 6.6 6.6 6.4 6.5 6.6 6.7 6.8
5.9 5.7 5.8 5.9 5.9 5.9 5.9 6.0 5.6 5.6 5.4 5.2 5.6 5.6 5.7 5.7 5.4 5.5 5.7 5.9 6.0 6.2 6.3 6.6 6.9 6.8 7.0 7.0 7.0 7.2 7.3 7.1 7.2 7.3 7.7 7.9 7.4 7.2 7.0 7.0 6.7 6.6 6.5 6.1 6.2 6.4 6.5 6.4 6.5 6.7 6.8 6.8 6.7 6.6
5.9 5.8 5.8 5.9 5.9 5.9 5.9 6.0 5.7 5.6 5.4 5.5 5.7 5.7 5.6 5.5 5.5 5.8 6.0 6.1 6.2 6.2 6.4 6.5 6.8 6.9 7.0 7.0 7.1 7.0 7.1 7.2 7.3 7.4 7.4 7.1 6.9 6.6 6.4 6.3 6.1 5.9 6.0 5.8 5.7 5.9 5.9 6.2 6.2 6.2 6.3 6.2 6.2 6.2
5.9 5.9 5.9 6.0 5.9 5.9 5.9 6.0 5.9 5.6 5.6 5.7 5.9 5.7 5.8 5.7 5.8 6.0 6.1 6.2 6.3 6.3 6.4 6.5 6.7 6.8 6.9 7.0 6.9 7.0 6.9 7.2 7.4 7.3 7.1 7.0 6.8 6.6 6.4 6.2 5.8 5.9 5.7 5.6 5.5 5.6 5.7 5.8 5.8 5.7 5.7 5.7 5.6 5.4
6.2 6.1 5.9 6.0 5.9 5.8 5.9 6.1 5.7 5.6 5.4 5.8 5.9 6.0 6.1 6.1 6.1 5.9 6.2 6.2 6.3 6.2 6.1 6.3 6.6 6.4 6.4 6.5 6.6 6.7 6.8 6.9 6.8 6.9 6.7 6.6 6.5 6.4 6.1 5.7 5.9 5.7 5.7 5.8 5.7 5.6 5.6 5.7 5.6 5.3 5.2 5.2 5.1 5.1
6.4 6.2 5.9 5.9 5.8 5.8 5.8 6.0 5.7 5.7 5.9 6.0 6.0 5.9 6.0 6.3 6.4 6.2 6.3 6.1 6.2 6.2 6.0 6.0 6.2 6.3 6.3 6.6 6.9 6.6 6.4 6.3 6.5 6.6 6.5 6.3 6.1 5.7 5.6 5.6 5.5 5.6 5.6 5.4 5.5 5.5 5.5 5.3 5.2 5.1 5.1 4.9 4.6 4.8
6.5 6.3 5.9 5.8 5.8 5.9 5.7 6.0 6.0 5.9 5.9 6.1 6.1 6.1 6.1 6.1 6.1 6.1 6.1 6.0 6.0 5.9 5.7 5.6 6.1 6.2 6.3 6.5 6.3 6.3 6.4 5.8 5.7 5.8 5.6 5.7 5.7 5.7 5.9 5.7 5.5 5.6 5.5 5.4 5.3 5.1 5.1 5.1 4.9 4.9 4.9 5.0 5.1 5.1
6.6 6.4 6.0 5.8 5.7 5.7 5.8 6.0 5.8 5.5 5.7 6.0 6.0 6.0 5.9 5.9 6.1 6.0 5.8 5.8 5.6 5.7 5.9 5.9 6.0 6.1 6.3 6.4 6.2 6.1 5.8 5.7 5.5 5.4 5.2 5.5 5.3 5.6 5.9 5.7 5.6 5.6 5.5 5.4 5.3 5.2 5.3 5.4 5.4 5.3 5.3 5.3 5.3 5.3
6.6 6.2 5.9 5.9 5.9 6.2 5.9 5.8 5.7 5.6 5.7 5.9 5.7 5.9 5.8 5.8 5.5 5.5 5.6 5.6 5.5 5.6 5.9 5.9 6.0 6.0 6.0 5.7 6.0 5.8 5.6 5.7 5.7 5.7 5.8 5.7 5.6 5.4 5.3 5.4 5.4 5.4 5.4 5.4 5.3 5.2 5.1 5.2 5.3 5.3 5.5 5.6 5.6 5.7
6.4 5.9 5.7 5.8 5.8 5.8 5.7 5.8 5.6 5.6 5.7 5.6 5.6 5.4 5.6 5.3 5.4 5.5 5.5 5.5 5.4 5.5 5.5 5.7 5.6 5.8 5.7 5.8 5.7 5.4 5.6 5.8 5.7 5.8 5.6 5.4 5.3 5.3 5.4 5.5 5.4 5.3 5.2 5.2 5.2 5.0 5.1 5.4 5.5 5.6 5.7 5.8 5.7 5.7
6.3 6.1 6.4 6.3 6.1 5.9 5.5 5.7 5.6 5.6 5.6 5.5 5.6 5.7 5.7 5.7 5.4 5.4 5.6 5.5 5.3 5.3 5.4 5.5 5.4 5.6 5.7 5.2 5.4 5.3 5.5 5.4 5.2 5.3 5.3 5.2 5.1 5.3 5.3 5.3 5.3 5.3 5.3 5.4 5.5 5.5 5.6 5.7 5.8 5.8 5.8 5.7 5.6 5.5
6.4 6.5 6.7 6.2 5.9 5.4 5.5 5.9 5.8 5.6 5.6 5.6 5.6 5.7 5.7 5.6 5.6 5.5 5.4 5.3 5.1 5.1 5.2 5.2 5.2 5.2 5.6 5.4 5.2 5.2 5.4 5.3 5.2 5.0 5.0 5.0 5.2 5.5 5.6 5.5 5.5 5.6 5.7 5.8 5.9 6.0 6.0 6.0 5.9 5.7 5.5 5.4 5.5 5.5
6.6 6.4 6.0 5.5 5.3 5.6 6.1 5.8 5.5 5.4 5.2 5.7 5.7 5.8 5.6 5.4 5.4 5.4 5.2 5.1 5.2 5.1 5.1 5.1 5.1 4.9 5.0 5.0 5.0 5.0 5.2 5.4 5.5 5.5 5.3 5.2 5.2 5.3 5.3 5.4 5.6 5.8 6.0 6.1 6.0 6.0 5.9 5.7 5.6 5.5 5.5 5.6 5.7 5.7
6.5 6.3 6.1 5.5 5.7 6.1 6.0 5.8 5.5 5.5 5.4 5.4 5.6 5.5 5.6 5.7 5.5 5.4 5.3 5.3 5.3 5.2 5.3 5.3 5.3 5.4 5.4 5.3 5.3 5.3 5.4 5.6 5.9 5.9 6.0 5.9 5.8 5.7 5.8 5.9 6.0 6.0 6.0 6.0 5.9 5.8 5.6 5.6 5.6 5.6 5.7 5.8 5.8 5.9
6.3 6.3 6.3 6.0 6.0 6.0 6.0 5.9 5.8 5.6 5.6 5.8 5.5 5.5 5.7 5.9 5.7 5.7 5.4 5.6 5.6 5.2 5.3 5.4 5.6 5.7 5.8 5.8 5.8 5.8 5.8 5.9 6.0 6.2 6.2 6.2 6.2 6.2 6.3 6.4 6.3 6.2 6.0 5.9 5.7 5.8 5.7 5.7 5.7 5.8 5.8 5.8 5.8 5.8
6.1 6.2 5.8 5.9 6.0 6.0 5.9 5.9 5.9 5.8 5.6 5.6 5.7 5.7 6.0 6.0 5.9 5.7 5.6 5.6 5.5 5.5 5.4 5.6 5.7 5.9 6.0 6.0 5.9 6.0 6.0 6.2 6.3 6.4 6.3 6.2 6.1 6.0 5.9 6.0 6.1 5.9 5.7 5.6 5.6 5.6 5.7 5.9 6.0 6.0 6.0 6.1 6.0 5.8
6.0 6.0 6.0 5.9 5.9 5.7 5.8 5.8 5.9 5.7 5.7 5.8 5.8 5.9 6.1 6.3 5.9 5.6 5.5 5.6 5.5 5.5 5.5 5.4 5.3 5.5 5.8 6.0 6.0 6.0 6.2 6.3 6.1 6.1 6.4 6.3 6.3 6.3 6.2 6.1 6.0 6.1 6.1 6.1 6.2 6.2 6.1 6.2 6.2 6.2 6.2 6.1 6.0 5.9
6.0 5.9 6.0 6.1 6.2 6.0 6.1 6.1 5.8 5.7 5.8 5.9 6.2 6.4 6.6 6.4 5.8 5.6 5.6 5.7 5.5 5.6 5.4 5.3 5.4 5.8 6.0 5.9 5.9 6.1 6.1 6.2 6.3 6.3 6.3 6.2 6.1 6.1 6.1 6.1 6.2 6.2 6.3 6.2 6.1 6.1 6.1 6.2 6.2 6.1 6.1 6.0 6.0 6.0
5.6 5.6 5.9 6.1 6.4 6.3 6.3 6.3 6.3 6.4 6.4 6.5 6.6 6.3 6.4 5.9 5.7 5.2 5.5 5.4 5.5 5.6 5.4 5.3 5.5 5.9 6.2 6.1 5.9 5.7 5.7 5.8 6.0 6.0 6.0 5.9 6.0 6.1 6.2 6.2 6.2 6.2 6.2 6.3 6.3 6.3 6.3 6.3 6.3 6.2 6.2 6.0 5.9 5.9
5.9 5.8 5.8 6.1 6.0 5.7 5.6 5.7 5.9 6.0 6.1 6.1 6.1 5.9 5.9 5.5 5.4 5.2 5.0 5.1 5.3 5.4 5.6 5.8 5.9 5.9 6.0 5.8 5.6 5.7 5.9 5.9 6.0 6.0 6.0 6.1 6.1 6.2 6.2 6.2 6.3 6.3 6.3 6.4 6.4 6.4 6.3 6.3 6.2 6.0 5.9 5.9 5.8 5.7
5.7 5.6 5.6 5.9 5.5 5.3 5.5 5.4 5.3 5.1 5.4 5.8 5.8 5.7 5.5 5.5 5.6 5.7 5.7 5.8 5.9 5.9 5.9 5.8 5.6 5.5 5.6 5.7 6.0 6.0 6.0 5.9 6.1 6.3 6.4 6.3 6.3 6.3 6.3 6.3 6.3 6.3 6.3 6.3 6.3 6.3 6.2 6.0 5.9 5.8 5.7 5.7 5.7 5.6
Wind_Speed
9 8 9 9 10 10 12 11 13 12 9 8 9 10 13 15 19 6 3 3 1 2 5 6 4 3 2 2 2 4 3 4 4 3 2 3 3 5 3 3 4 5 5 3 1 4 5 2 4 7 4 5 6 4
11 9 8 9 8 9 11 12 12 13 12 9 9 11 12 14 18 15 2 4 2 3 6 4 8 11 9 5 4 3 3 3 4 3 1 3 1 1 4 2 1 2 5 3 6 4 3 3 5 2 3 4 2 3
13 9 8 9 9 10 9 9 11 10 10 11 11 11 13 14 15 12 3 3 2 2 5 3 6 6 7 16 9 3 3 3 3 4 3 1 1 3 3 4 3 3 4 1 2 4 2 2 6 5 6 5 3 3
11 10 10 9 10 11 10 8 10 10 11 10 11 12 13 14 14 11 2 1 1 1 2 6 4 8 3 8 18 19 5 4 5 2 2 2 2 2 2 2 3 4 4 4 4 5 2 8 9 7 6 8 7 2
11 11 10 9 9 11 11 9 10 11 12 12 12 13 14 16 17 13 4 4 2 2 2 5 11 5 4 9 15 14 6 5 2 2 3 2 2 2 1 1 3 5 6 5 5 4 4 6 5 8 11 7 8 6
12 12 10 9 9 10 11 11 10 11 12 14 14 14 15 16 17 2 1 1 2 1 1 4 4 6 5 6 10 12 9 3 3 4 2 3 1 3 2 2 6 6 1 2 3 4 3 6 4 3 7 9 8 8
12 12 12 11 9 10 11 11 12 12 13 14 15 15 15 14 2 2 2 0 5 2 0 4 5 5 4 2 3 3 3 4 4 3 3 4 2 3 3 3 11 5 6 1 3 2 3 6 4 5 7 8 6 5
13 10 11 11 11 10 11 12 13 14 15 16 16 17 17 18 10 5 4 16 10 1 1 2 5 5 4 2 1 1 3 1 1 3 2 3 2 3 2 5 10 5 5 2 6 9 3 3 5 10 4 6 8 7
10 10 12 13 12 10 11 12 14 15 16 17 18 19 4 1 1 3 6 16 4 2 1 1 2 3 4 2 1 2 2 2 1 4 3 4 2 2 5 12 8 5 1 5 3 4 9 9 7 6 4 8 9 6
8 10 9 7 5 8 10 12 14 16 19 19 1 1 1 3 5 3 2 2 2 1 0 3 2 3 2 3 2 2 2 2 2 2 3 3 2 3 7 8 4 9 13 8 4 4 6 4 5 6 7 7 9 7
7 7 6 7 7 7 8 10 13 17 6 2 2 2 3 10 2 1 2 2 1 3 3 4 5 2 1 1 2 1 2 1 2 3 4 2 1 2 7 7 5 10 14 14 11 8 8 4 6 8 10 8 7 6
7 6 7 7 7 5 7 9 11 4 0 2 4 4 2 1 1 2 3 2 4 4 3 4 5 5 3 2 2 4 2 2 1 2 4 3 2 2 5 5 6 7 12 13 10 9 6 8 8 9 6 6 5 6
6 7 6 7 8 7 6 8 9 9 9 1 2 2 1 2 2 4 4 3 2 2 2 2 3 3 1 2 2 3 5 1 1 4 2 3 3 1 3 5 6 6 11 12 10 7 6 6 8 10 6 5 7 7
6 8 7 8 9 9 7 7 8 5 1 1 1 2 2 2 3 3 2 2 4 3 3 2 2 3 1 3 3 4 1 3 2 1 3 5 7 5 3 3 1 4 6 11 8 7 7 8 9 8 8 7 10 9
6 5 6 10 10 9 5 5 5 2 1 1 2 2 4 3 4 4 4 2 2 2 2 1 3 2 3 3 2 3 2 0 3 3 2 3 5 5 5 2 3 5 6 6 5 7 7 9 11 12 10 10 10 10
3 1 3 6 3 2 2 4 1 1 1 1 3 3 3 2 3 3 3 3 2 2 1 2 2 3 4 1 1 2 4 4 2 2 3 5 6 5 5 6 6 5 5 6 8 8 8 9 11 11 11 11 12 12
6 1 2 2 3 4 3 0 1 2 1 2 3 3 4 4 4 2 2 3 2 2 2 2 3 1 2 3 2 3 2 2 4 6 4 4 6 6 6 6 6 6 7 8 9 9 9 8 10 11 12 8 11 12
1 1 3 3 2 2 2 1 1 1 3 3 2 4 2 1 3 1 2 2 1 2 2 1 3 3 2 2 2 2 2 5 4 4 4 4 5 5 4 7 8 9 8 7 7 7 10 10 10 7 8 9 10 9
2 3 4 3 1 1 1 2 2 2 4 3 3 2 2 1 1 4 3 4 1 1 3 3 4 2 1 2 3 5 6 6 4 3 3 3 4 6 8 9 10 8 8 6 8 6 5 7 6 5 4 5 6 4
8 9 5 2 1 1 2 2 2 2 2 2 1 3 1 1 4 3 3 4 3 3 4 3 2 1 1 2 1 2 4 6 8 6 4 4 4 7 7 8 7 7 7 7 6 7 5 6 4 5 4 5 6 4
3 1 5 4 1 3 2 2 3 3 2 2 2 2 1 3 2 3 3 3 4 2 2 2 1 1 2 2 3 5 4 4 4 4 4 5 3 8 7 6 6 5 6 4 5 4 5 4 3 4 5 4 4 4
2 7 1 3 2 3 3 3 2 2 2 0 2 2 2 3 2 3 1 5 2 3 2 2 3 4 8 10 6 5 4 10 9 6 7 7 7 6 5 3 5 4 4 4 5 5 4 3 4 4 5 4 4 4
2 3 2 3 2 1 5 0 2 4 3 1 0 2 2 0 2 2 3 2 3 4 3 3 4 5 6 4 6 7 6 10 6 4 5 6 5 4 5 4 4 5 4 2 2 5 4 5 5 5 4 4 3 2
3 2 2 2 3 3 0 2 0 2 1 1 2 2 1 2 1 3 3 3 3 3 3 3 3 3 4 6 4 5 4 4 5 5 4 6 6 4 4 4 4 4 3 4 3 4 4 3 4 4 4 4 5 4
2 4 3 4 3 2 3 3 4 2 2 2 2 1 3 2 3 3 2 2 3 3 3 3 4 4 5 3 3 4 5 3 5 5 3 5 7 4 5 4 4 3 1 5 2 3 2 3 3 4 4 3 4 5
2 2 1 2 1 1 2 1 3 2 1 1 2 2 2 3 3 3 1 1 2 2 2 2 4 4 3 2 4 3 1 1 5 5 2 4 5 5 5 4 3 2 1 3 4 4 3 1 1 2 1 2 4 3
2 3 1 1 1 1 3 2 1 2 2 2 1 1 2 3 2 2 2 0 1 1 2 1 3 5 4 2 2 3 3 1 4 4 4 4 4 5 4 4 3 3 3 4 3 3 2 1 2 2 3 3 3 3
2 3 2 3 2 2 2 1 1 1 1 2 2 4 2 2 2 3 3 2 1 1 1 1 2 4 4 3 4 4 4 4 5 5 4 4 3 2 3 2 2 6 3 3 4 3 4 4 5 5 5 5 6 4
1 1 2 4 4 4 3 3 2 2 2 1 3 2 2 1 1 1 1 1 2 3 3 4 3 3 4 4 3 3 3 4 5 4 3 1 3 3 2 2 2 3 3 4 7 6 7 6 6 6 6 5 6 5
4 2 4 3 3 3 3 1 2 2 1 3 4 2 2 2 0 1 2 2 2 3 2 2 2 3 3 5 4 4 4 2 4 5 5 3 4 2 2 1 2 3 3 4 4 4 5 3 3 2 2 3 2 3
2 4 4 4 3 3 1 1 4 4 3 4 4 4 3 3 1 1 2 2 1 2 2 3 1 5 6 5 4 5 2 2 3 6 5 4 3 2 1 1 2 1 1 2 2 1 1 2 1 2 4 6 7 6
3 3 3 3 2 2 3 3 3 4 4 4 4 3 3 3 3 1 2 3 2 1 2 4 5 4 5 4 4 3 6 5 5 4 7 3 3 1 1 1 1 1 2 3 3 3 4 3 3 5 5 7 8 8
3 3 3 2 2 2 3 2 2 2 3 2 3 1 1 3 1 3 2 2 3 5 5 4 4 5 7 8 7 5 6 4 6 7 7 7 6 5 2 1 2 3 4 4 5 4 6 7 6 8 8 8 9 9
Wind_Direction
296 310 323 331 343 351 354 356 357 354 353 0 4 8 10 5 3 5 277 286 75 239 270 223 227 213 339 114 141 281 48 343 30 65 146 187 148 210 150 204 194 188 141 200 111 114 244 137 301 144 179 325 311 324
310 294 312 319 319 331 345 354 351 352 4 8 15 14 6 4 3 1 312 334 338 193 251 246 233 235 213 211 116 343 200 180 192 93 322 109 144 126 181 214 112 257 183 197 180 231 249 134 194 211 160 192 319 80
312 313 312 311 315 304 314 330 347 346 356 1 359 357 355 354 357 4 291 295 353 331 297 345 249 264 202 219 186 167 282 190 171 169 146 143 163 139 184 236 188 263 173 174 36 264 287 292 281 200 186 157 163 117
289 300 301 300 309 318 314 313 320 331 343 340 339 342 338 338 339 335 283 244 104 272 289 281 303 285 195 168 188 201 132 65 106 104 110 135 188 176 252 231 165 201 136 195 266 301 333 241 236 231 187 164 127 145
275 281 295 306 305 309 317 312 311 320 320 320 329 336 335 335 332 314 213 231 233 118 263 283 304 247 224 175 190 194 151 122 111 57 64 264 187 144 209 97 250 185 187 179 222 225 187 237 199 183 252 162 139 119
267 272 276 289 300 306 308 314 313 313 316 316 315 318 323 330 337 330 22 88 231 186 265 308 299 295 333 147 156 176 171 138 145 148 191 267 225 172 76 285 265 213 146 110 274 200 260 278 270 211 227 89 87 100
266 268 275 279 289 301 307 306 306 309 311 312 311 307 310 314 2 219 236 155 138 23 292 306 310 275 301 102 121 134 118 177 148 163 169 186 289 102 111 243 333 335 97 245 185 172 29 308 274 35 49 29 75 153
283 262 274 280 278 288 303 305 305 308 309 309 305 304 303 297 280 282 246 245 185 236 3 275 276 331 354 351 98 57 120 72 337 150 104 149 52 33 312 294 311 62 104 75 275 260 288 280 297 298 11 29 56 75
274 278 287 280 272 272 298 306 309 310 308 304 304 306 323 88 202 264 50 128 161 152 255 222 255 267 353 25 233 32 89 139 172 174 201 104 159 141 272 297 301 324 53 273 301 262 243 254 284 215 207 108 112 137
278 293 292 292 289 295 301 310 314 313 306 302 345 332 280 221 306 151 306 47 9 299 75 230 249 268 64 0 334 65 41 159 132 269 126 73 80 272 297 284 237 57 46 17 37 6 2 40 105 109 117 117 135 138
290 283 286 287 280 286 307 317 321 325 352 18 343 248 320 309 137 160 209 194 168 252 201 232 196 218 278 140 246 56 163 34 111 255 114 55 103 257 317 319 6 70 72 57 53 47 51 41 70 92 100 101 104 98
280 263 282 293 287 306 313 321 335 4 284 238 267 287 283 320 109 204 208 270 203 235 213 192 212 199 268 96 82 342 83 15 113 323 82 120 208 279 336 350 34 44 65 68 64 50 30 69 81 83 71 85 74 83
274 252 276 300 308 306 303 314 324 313 311 253 220 249 190 190 162 203 190 234 258 244 268 301 252 187 35 85 85 78 44 315 7 42 131 175 140 145 310 332 35 72 85 72 49 36 23 41 36 65 67 61 76 74
292 260 264 284 296 305 301 310 327 342 334 283 277 333 219 186 261 204 231 235 257 252 306 239 264 177 196 104 143 102 206 80 72 132 224 169 186 163 221 309 352 67 61 89 95 69 60 63 61 54 50 52 70 61
291 259 268 283 282 286 275 305 322 17 324 295 290 230 219 256 267 260 274 277 263 288 337 50 28 52 19 91 39 112 123 230 200 224 172 137 142 156 176 177 102 76 76 69 60 82 72 74 71 61 53 65 70 66
252 254 249 277 331 29 323 318 303 220 266 255 239 277 251 271 317 320 333 316 314 298 175 60 80 53 38 4 77 51 137 206 215 164 123 123 125 128 132 115 103 92 90 91 85 86 78 82 86 86 70 59 60 67
130 253 351 18 328 306 300 340 292 228 276 266 249 228 251 259 256 268 257 273 321 47 68 63 67 66 49 38 49 15 25 279 141 122 109 108 131 133 120 106 104 82 80 87 88 85 86 85 84 78 72 53 72 70
53 343 348 348 8 332 335 229 267 263 250 236 254 289 257 253 265 282 306 309 352 73 80 93 123 60 65 132 63 130 125 89 91 121 113 121 114 119 108 99 92 97 84 74 74 72 87 89 86 82 85 88 81 71
257 281 324 347 5 319 260 220 202 261 242 240 260 275 315 297 270 295 298 327 337 105 88 47 65 58 40 6 116 128 117 109 102 54 63 62 95 98 94 89 96 89 85 79 85 83 77 79 97 87 80 81 90 81
282 274 266 269 356 301 257 251 173 263 282 294 301 17 358 325 302 316 3 1 29 50 44 40 50 22 286 329 24 97 104 122 117 105 63 32 37 88 91 109 106 106 94 85 75 77 86 81 57 81 84 89 97 97
312 203 147 169 237 214 282 291 247 222 271 54 338 24 8 338 340 19 14 347 51 42 61 22 360 7 4 100 88 92 88 100 97 110 123 93 59 97 97 92 88 87 101 96 100 78 74 105 123 102 104 107 114 124
268 162 157 194 261 196 248 219 231 293 67 44 43 10 5 323 23 20 307 43 57 44 46 28 11 67 70 57 64 66 63 87 89 88 67 106 102 96 95 107 108 102 98 108 115 128 125 134 127 124 125 141 145 144
278 204 238 219 258 322 260 203 51 7 48 85 60 341 276 307 51 1 79 48 53 31 46 61 53 64 63 33 54 54 63 93 92 86 89 88 82 82 90 74 97 115 107 56 122 136 142 155 143 145 149 152 159 171
252 257 256 242 204 258 210 63 65 301 200 92 62 278 292 59 30 63 59 37 358 338 35 38 74 67 39 43 46 53 31 80 90 72 60 106 95 58 78 91 85 90 123 137 131 132 154 167 161 155 179 189 200 207
291 280 118 293 259 305 142 228 174 159 80 82 240 69 29 56 69 59 53 343 352 25 23 35 62 56 96 78 50 49 9 89 106 109 26 108 115 95 69 66 73 79 146 116 109 112 117 149 201 216 208 221 241 253
271 248 160 347 22 343 315 28 49 84 135 157 66 85 58 74 71 84 124 159 21 0 358 74 126 97 55 58 119 111 118 355 97 87 78 128 128 125 129 119 102 342 5 130 126 124 128 140 122 94 251 275 281 252
356 352 300 227 220 120 58 41 45 79 62 57 49 71 79 80 100 146 111 197 248 336 323 260 155 126 138 125 83 84 85 79 106 130 135 150 146 148 143 152 169 222 198 185 165 162 174 255 283 289 290 292 267 258
172 223 253 316 44 20 106 89 76 31 41 356 54 37 70 93 151 180 187 181 188 306 319 165 152 124 124 121 120 107 76 81 80 81 73 50 38 25 359 330 249 200 203 223 224 233 238 248 261 274 280 279 288 280
177 131 54 26 33 33 31 8 351 4 345 63 98 112 121 57 111 145 167 123 107 66 74 86 60 60 67 64 58 60 126 144 129 140 126 336 338 305 320 251 287 289 272 273 268 245 266 271 263 259 274 275 274 281
2 26 88 52 53 47 336 343 331 304 63 112 118 89 54 48 103 95 107 90 85 90 70 56 80 93 128 119 113 60 9 128 150 138 141 174 208 229 287 316 310 295 292 282 276 300 323 323 323 342 297 319 308 319
56 40 53 37 56 1 352 4 10 31 48 58 54 86 118 131 88 189 178 185 152 72 17 290 254 157 142 146 145 133 117 298 173 145 142 145 161 190 251 297 303 319 27 40 37 352 324 333 285 331 316 308 298 293
50 78 89 56 34 303 25 42 34 45 26 41 21 39 28 55 62 298 210 157 161 217 233 153 133 163 189 159 171 208 178 156 175 173 163 167 170 172 105 30 15 20 29 13 356 342 336 321 271 282 285 293 296 295
63 58 66 77 25 18 343 77 63 57 43 53 26 75 108 128 159 255 295 187 182 165 151 175 162 146 155 164 184 198 193 180 186 187 196 188 178 185 186 240 292 328 333 318 309 306 309 306 302 292 288 286 288 288